Find Shiyan 30-03

NORAD ID: 68139 Int'l Des: 2026-048 Owner: SAST Country: CN operational
LEOCIRCULAR

現在のビュー

3D地球を読み込み中...

About Shiyan 30-03

Shiyan 30-03 (NORAD 68139) is a satellite launched Mar 12, 2026 by SAST of CN. It operates in LEO, CIRCULAR orbit with a mass of 500.00 kg.

次回通過

Passes for default location (London). Set your location on the main map for personalized predictions.

高度履歴

Loading altitude history...

軌道要素

1 68139U 26048A 26163.27448239 .00002009 00000-0 19817-3 0 9994
2 68139 35.0007 297.3248 0005390 301.7654 58.2526 14.91778942 13635
Epoch: Jun 12, 2026 • Age: 8 hours

現在のステータス

高度 595.5 km
速度 7.57 km/s
衛星直下点 -29.20°S, 126.51°E
打ち上げ日 Mar 12, 2026
運用期間 0.2 years
タイプ other

技術仕様

分類 Payload
質量 500.00 kg
乾燥質量 500.00 kg
総質量 500.00 kg
長さ 1.40 m
直径 1.00 m
スパン 4.00 m
形状 Box+2 pan
製造者 SAST
バスタイプ SY30
フェーズステータス In Orbit
所有者/国 SAST/CN

Most Searched